[[{"header":{"parameterUnit":"m.s-1","parameterCategory":1,"la1":30.2991,"la2":30.254,"lo1":-89.0895,"lo2":-89.0444,"dy":0.0017,"dx":0.0017,"nx":28,"ny":28,"refTime":"2025-08-14T09:00:00:Z","depth":0,"parameterNumber":2,"parameterNumberName":"U-component_of_WINDS"},"data":[0,0,0,0,0,0,0,0,0,0,0,0,0,0,0,0,0,0,0,0,0,0,0,0,0,0,0,0,0,0,0,0,0,0,0,0,0,0,0,0,0,0,0,0,0,0,0,0,0,0,0,0,0,0,0,0,0,0,1.2467,1.2468,0,1.2505,1.2505,1.2506,1.2507,1.2506,1.2506,1.2505,1.2544,1.2545,1.2546,0,0,0,0,0,0,0,0,0,0,0,0,0,1.2399,1.2401,1.2467,1.2468,1.2468,1.2505,1.2505,1.2506,1.2507,1.2506,1.2505,1.2505,1.2543,1.2545,1.2547,0,0,0,0,0,0,0,0,0,0,0,0,0,1.2432,1.2401,1.2467,1.2473,1.2474,1.2504,1.2505,1.2506,1.2507,1.2506,1.2505,1.2505,1.2543,1.2545,1.2547,1.2574,0,0,1.2554,1.2554,0,0,0,0,0,0,0,0,1.243,1.2434,1.2472,1.2473,1.2474,1.25,1.2495,1.2529,1.2507,1.2494,1.2505,1.2504,1.253,1.2533,1.2541,1.2576,1.2577,1.2554,1.2555,1.2556,1.2557,0,0,0,0,0,0,0,1.2428,1.2433,1.2482,1.2472,1.2474,1.2475,1.2479,1.2502,1.2515,1.2495,1.2496,1.25,1.253,1.2539,1.2542,1.2578,1.2554,1.2556,1.2557,1.2558,1.2639,1.264,0,0,0,0,0,0,1.2424,1.2431,1.2481,1.2483,1.245,1.2476,1.2481,1.2492,1.2515,1.2518,1.25,1.25,1.2536,1.254,1.2544,1.2579,1.2556,1.2558,1.2559,1.2638,1.2639,1.264,0,0,0,0,0,0,1.2423,1.2429,1.2479,1.2457,1.2464,1.2478,1.2492,1.2494,1.2503,1.2519,1.2522,1.2507,1.2536,1.2541,1.2567,1.258,1.2559,1.2561,1.2637,1.2639,1.264,1.2648,0,0,0,0,0,0,1.2421,1.2428,1.2438,1.2457,1.2465,1.2501,1.2492,1.2495,1.2506,1.2506,1.2526,1.2529,1.2535,1.2564,1.2569,1.2583,1.2563,1.2636,1.2638,1.2639,1.2646,1.2649,1.2651,0,0,0,0,0,1.2418,1.2438,1.2438,1.2444,1.2477,1.2502,1.2507,1.2514,1.2507,1.2518,1.2529,1.2528,1.2578,1.2566,1.2573,1.2587,1.2635,1.2637,1.2639,1.2645,1.2648,1.2651,0,0,0,0,0,0,1.2419,1.2441,1.2441,1.2468,1.2483,1.2502,1.2516,1.2517,1.2534,1.2533,1.2542,1.2546,1.2573,1.2582,1.257,1.2616,1.2606,1.2609,1.2608,1.2611,1.2614,1.2611,1.2564,0,0,0,0,0,1.2422,1.244,1.2458,1.248,1.2488,1.2501,1.2512,1.2516,1.2532,1.2539,1.2552,1.2568,1.2588,1.26,1.2619,1.2648,1.2653,1.2661,1.2663,1.2665,1.2668,1.2686,1.269,1.2647,1.2647,1.2647,0,0,1.2429,1.2443,1.2454,1.2481,1.2493,1.2513,1.2506,1.2526,1.2541,1.2542,1.2568,1.2578,1.2597,1.2626,1.2639,1.2634,1.2682,1.2668,1.2669,1.2671,1.2689,1.2693,1.2697,1.2648,1.2648,1.2648,0,0,1.2452,1.2464,1.2484,1.2497,1.2517,1.2525,1.253,1.255,1.2557,1.2583,1.2585,1.2603,1.2636,1.265,1.2661,1.2692,1.2693,1.2698,1.2711,1.2729,1.2733,1.2736,1.2748,1.2752,1.2701,1.2701,1.2701,0,1.2458,1.2487,1.2494,1.2515,1.2528,1.2531,1.2552,1.2565,1.2589,1.2598,1.2593,1.2636,1.2648,1.2681,1.2689,1.2698,1.2705,1.2696,1.2731,1.2735,1.2738,1.275,1.2754,1.2701,1.2701,1.2701,1.2701,0,1.2494,1.2514,1.2529,1.2553,1.2567,1.2588,1.26,1.2614,1.2618,1.2627,1.2655,1.2671,1.2694,1.2702,1.2705,1.2736,1.2733,1.2729,1.272,1.2742,1.2754,1.2758,1.2702,1.2702,1.2702,1.2702,0,0,1.2517,1.2547,1.2552,1.2564,1.2587,1.2603,1.2625,1.2648,1.266,1.2677,1.2697,1.2726,1.2724,1.2737,1.2742,1.2758,1.2783,1.2753,1.2753,1.2759,1.282,1.2823,1.2828,1.2784,1.2785,1.2785,1.2819,0,1.2543,1.2582,1.2591,1.2625,1.2644,1.2648,1.2668,1.2685,1.2695,1.2714,1.2725,1.2746,1.274,1.2749,1.2764,1.2777,1.2796,1.2774,1.2803,1.2804,1.2799,1.2833,1.2836,1.2866,1.2823,1.2824,1.2824,0,1.2578,1.2597,1.2633,1.2655,1.2664,1.2681,1.2704,1.2722,1.2741,1.2748,1.2764,1.2768,1.2793,1.2782,1.2817,1.2802,1.2815,1.2823,1.2824,1.2828,1.2815,1.2838,1.2876,1.2881,1.2831,1.283,1.283,0,1.2593,1.2627,1.2654,1.2664,1.269,1.2703,1.2714,1.2733,1.2747,1.2767,1.2777,1.2799,1.2812,1.283,1.2841,1.2832,1.2875,1.2865,1.2882,1.2882,1.2891,1.2891,1.2932,1.2898,1.2898,1.2898,1.2898,0,1.2621,1.2643,1.2661,1.2678,1.2703,1.2714,1.2739,1.2751,1.2768,1.2788,1.2793,1.2811,1.2824,1.2845,1.2854,1.2882,1.2888,1.2894,1.2897,1.2894,1.2894,1.2903,1.2901,1.2899,1.2899,1.2899,1.2899,0,1.2641,1.2654,1.2684,1.2707,1.2713,1.2731,1.2751,1.2768,1.2779,1.2804,1.2811,1.2828,1.2853,1.2866,1.2896,1.2902,1.2935,1.2935,1.2928,1.2929,1.2946,1.2945,1.2995,1.3003,1.2963,1.2964,1.2964,0,1.2659,1.2676,1.2702,1.2715,1.2727,1.2749,1.2764,1.2775,1.2791,1.2816,1.283,1.2855,1.2876,1.2916,1.2931,1.2956,1.2957,1.2974,1.2961,1.2959,1.2959,1.2958,1.296,1.2976,1.2976,1.2976,1.2977,0,1.2689,1.2695,1.2716,1.2739,1.2757,1.2776,1.2795,1.2806,1.2821,1.2838,1.2864,1.288,1.2913,1.2938,1.2964,1.2977,1.298,1.2981,1.2986,1.2984,1.298,1.2984,1.2935,1.2979,1.2979,1.2979,1.2979,1.2979,1.2709,1.2725,1.2747,1.277,1.2786,1.2804,1.2822,1.2836,1.2857,1.2885,1.289,1.2918,1.294,1.2975,1.2988,1.3011,1.3008,1.3015,1.3017,1.3019,1.302,1.2976,1.3016,1.3015,1.3015,1.3015,1.3015,0,1.274,1.2755,1.2776,1.2803,1.2823,1.2824,1.2846,1.2862,1.2886,1.2906,1.2927,1.2957,1.2983,1.3001,1.3027,1.3042,1.3044,1.3049,1.3048,1.3051,1.3021,1.3014,1.3047,1.3047,1.3047,1.3046,1.3046,1.3046,1.2759,1.2787,1.2796,1.2834,1.2848,1.2875,1.2888,1.2905,1.2921,1.2955,1.2977,1.2989,1.3008,1.3036,1.306,1.3065,1.3075,1.308,1.3085,1.3056,1.3053,1.305,1.3044,1.3081,1.3081,1.3113,1.3113,1.3114]},{"header":{"parameterUnit":"m.s-1","parameterCategory":1,"la1":30.2991,"la2":30.254,"lo1":-89.0895,"lo2":-89.0444,"dy":0.0017,"dx":0.0017,"nx":28,"ny":28,"refTime":"2025-08-14T09:00:00:Z","depth":0,"parameterNumber":3,"parameterNumberName":"V-component_of_WINDS"},"data":[0,0,0,0,0,0,0,0,0,0,0,0,0,0,0,0,0,0,0,0,0,0,0,0,0,0,0,0,0,0,0,0,0,0,0,0,0,0,0,0,0,0,0,0,0,0,0,0,0,0,0,0,0,0,0,0,0,0,-1.9114,-1.9114,0,-1.9119,-1.9119,-1.9119,-1.913,-1.913,-1.913,-1.9131,-1.9133,-1.9133,-1.9132,0,0,0,0,0,0,0,0,0,0,0,0,0,-1.9113,-1.9113,-1.9114,-1.9114,-1.9114,-1.9119,-1.9119,-1.9119,-1.913,-1.913,-1.913,-1.9131,-1.9133,-1.9133,-1.9132,0,0,0,0,0,0,0,0,0,0,0,0,0,-1.9115,-1.9113,-1.9114,-1.912,-1.9121,-1.9119,-1.9119,-1.9119,-1.913,-1.913,-1.913,-1.9131,-1.9133,-1.9133,-1.9132,-1.9124,0,0,-1.9132,-1.9132,0,0,0,0,0,0,0,0,-1.9115,-1.9115,-1.9119,-1.912,-1.912,-1.9124,-1.9119,-1.912,-1.913,-1.9126,-1.9131,-1.9131,-1.9129,-1.9129,-1.9129,-1.9124,-1.9124,-1.9132,-1.9131,-1.9131,-1.9131,0,0,0,0,0,0,0,-1.9115,-1.9115,-1.9116,-1.9119,-1.912,-1.9122,-1.9123,-1.9119,-1.9126,-1.9126,-1.9127,-1.9128,-1.913,-1.913,-1.913,-1.9124,-1.9132,-1.9131,-1.9131,-1.9131,-1.9114,-1.9114,0,0,0,0,0,0,-1.9114,-1.9115,-1.9115,-1.9116,-1.9118,-1.9122,-1.9123,-1.9122,-1.9126,-1.9127,-1.9128,-1.9128,-1.913,-1.913,-1.913,-1.9121,-1.9131,-1.9131,-1.9131,-1.9114,-1.9114,-1.9114,0,0,0,0,0,0,-1.9114,-1.9114,-1.9115,-1.9115,-1.9116,-1.9122,-1.9121,-1.9122,-1.9122,-1.9127,-1.9128,-1.9127,-1.913,-1.913,-1.9126,-1.9122,-1.9131,-1.9131,-1.9115,-1.9114,-1.9114,-1.9104,0,0,0,0,0,0,-1.9114,-1.9114,-1.9111,-1.9115,-1.9116,-1.9111,-1.9121,-1.9122,-1.9122,-1.9123,-1.9126,-1.9127,-1.913,-1.9126,-1.9126,-1.9121,-1.9131,-1.9115,-1.9115,-1.9114,-1.9105,-1.9103,-1.9102,0,0,0,0,0,-1.9114,-1.9106,-1.911,-1.911,-1.9112,-1.9111,-1.9111,-1.9117,-1.9122,-1.9119,-1.9122,-1.9126,-1.9122,-1.9126,-1.9125,-1.9121,-1.9115,-1.9115,-1.9114,-1.9105,-1.9103,-1.9102,0,0,0,0,0,0,-1.9099,-1.9107,-1.9111,-1.9106,-1.9108,-1.9113,-1.9109,-1.9114,-1.9115,-1.9115,-1.9122,-1.9122,-1.9117,-1.9119,-1.9122,-1.9114,-1.912,-1.9119,-1.9113,-1.9112,-1.911,-1.911,-1.913,0,0,0,0,0,-1.9096,-1.9095,-1.9101,-1.9096,-1.9097,-1.9103,-1.9103,-1.9107,-1.9109,-1.911,-1.9113,-1.9114,-1.9113,-1.9112,-1.9112,-1.9105,-1.9106,-1.9102,-1.9101,-1.9099,-1.9099,-1.9097,-1.9095,-1.9111,-1.9111,-1.9111,0,0,-1.9087,-1.9092,-1.909,-1.9093,-1.9095,-1.9094,-1.9103,-1.9101,-1.9101,-1.9109,-1.9106,-1.9108,-1.911,-1.9106,-1.9104,-1.9106,-1.9095,-1.9099,-1.9098,-1.9097,-1.9096,-1.9095,-1.9093,-1.9111,-1.9111,-1.9111,0,0,-1.9073,-1.9075,-1.9072,-1.9075,-1.9079,-1.9083,-1.9083,-1.9088,-1.909,-1.9088,-1.9094,-1.9094,-1.9092,-1.9094,-1.9094,-1.9083,-1.9088,-1.9083,-1.9075,-1.9074,-1.9073,-1.9071,-1.9069,-1.9067,-1.9082,-1.9082,-1.9082,0,-1.9062,-1.9061,-1.9069,-1.9068,-1.9069,-1.9079,-1.9075,-1.9077,-1.908,-1.9081,-1.9085,-1.9084,-1.9086,-1.9083,-1.9081,-1.908,-1.908,-1.9082,-1.9072,-1.9071,-1.907,-1.9068,-1.9066,-1.9081,-1.9081,-1.9081,-1.9082,0,-1.9049,-1.9048,-1.9045,-1.905,-1.9051,-1.9048,-1.9056,-1.9056,-1.9061,-1.9065,-1.9063,-1.9066,-1.9068,-1.9067,-1.9071,-1.9065,-1.9067,-1.9071,-1.9077,-1.9068,-1.9066,-1.9065,-1.9081,-1.9081,-1.9081,-1.9081,0,0,-1.9023,-1.9034,-1.9033,-1.9036,-1.9043,-1.9043,-1.9041,-1.9044,-1.9044,-1.9047,-1.9046,-1.9046,-1.9051,-1.9052,-1.9056,-1.9055,-1.9047,-1.9059,-1.906,-1.9058,-1.9042,-1.9039,-1.9038,-1.9051,-1.9051,-1.905,-1.9043,0,-1.901,-1.9009,-1.9017,-1.9014,-1.9015,-1.9025,-1.9024,-1.9028,-1.9032,-1.9033,-1.9038,-1.9038,-1.9044,-1.9045,-1.9044,-1.9048,-1.9044,-1.9049,-1.905,-1.905,-1.905,-1.9036,-1.9033,-1.9025,-1.9042,-1.9041,-1.9041,0,-1.8994,-1.8998,-1.8995,-1.9004,-1.9005,-1.9004,-1.9008,-1.9009,-1.9014,-1.9018,-1.902,-1.9026,-1.9026,-1.9032,-1.9032,-1.9035,-1.9036,-1.9038,-1.9038,-1.9039,-1.9045,-1.9037,-1.9022,-1.9021,-1.904,-1.904,-1.904,0,-1.8977,-1.8982,-1.8981,-1.8984,-1.8994,-1.8993,-1.8997,-1.9003,-1.9004,-1.9008,-1.9009,-1.9012,-1.9014,-1.9016,-1.9023,-1.9027,-1.9022,-1.9029,-1.9026,-1.9025,-1.9024,-1.9024,-1.901,-1.9024,-1.9024,-1.9024,-1.9024,0,-1.8962,-1.896,-1.8974,-1.8974,-1.8973,-1.8982,-1.8981,-1.8986,-1.8991,-1.8992,-1.9,-1.9001,-1.901,-1.9012,-1.9017,-1.9017,-1.9017,-1.902,-1.9022,-1.902,-1.9019,-1.902,-1.9021,-1.9024,-1.9024,-1.9024,-1.9024,0,-1.8943,-1.8952,-1.8952,-1.8963,-1.8966,-1.8964,-1.8973,-1.8973,-1.8979,-1.8981,-1.8981,-1.899,-1.8993,-1.9001,-1.9004,-1.9008,-1.9007,-1.9009,-1.9005,-1.9006,-1.9003,-1.9004,-1.8989,-1.8988,-1.9003,-1.9003,-1.9002,0,-1.8933,-1.8932,-1.8943,-1.8945,-1.8949,-1.8952,-1.8955,-1.8965,-1.8967,-1.8974,-1.8974,-1.8978,-1.8981,-1.8985,-1.8992,-1.8995,-1.8998,-1.8993,-1.8999,-1.8997,-1.8999,-1.8999,-1.9,-1.8992,-1.8991,-1.8991,-1.8991,0,-1.8914,-1.8919,-1.8923,-1.893,-1.8933,-1.8938,-1.8943,-1.8944,-1.8955,-1.8958,-1.8961,-1.8964,-1.897,-1.8974,-1.8979,-1.8983,-1.8989,-1.899,-1.8989,-1.8987,-1.8985,-1.8987,-1.9003,-1.899,-1.899,-1.899,-1.899,-1.899,-1.89,-1.89,-1.8909,-1.8914,-1.8919,-1.8925,-1.8926,-1.8933,-1.8937,-1.8943,-1.8949,-1.8952,-1.8959,-1.8967,-1.8971,-1.8974,-1.8977,-1.8976,-1.8976,-1.8975,-1.8975,-1.8985,-1.8974,-1.8975,-1.8975,-1.8975,-1.8975,0,-1.8882,-1.8889,-1.8894,-1.8902,-1.8906,-1.8913,-1.892,-1.8923,-1.8926,-1.8932,-1.8937,-1.8942,-1.8946,-1.8954,-1.8959,-1.896,-1.8963,-1.8961,-1.8961,-1.8962,-1.8971,-1.8972,-1.8959,-1.8959,-1.8959,-1.8959,-1.8959,-1.8959,-1.8874,-1.8876,-1.8883,-1.8888,-1.8894,-1.8899,-1.8903,-1.8908,-1.8913,-1.8919,-1.8924,-1.8929,-1.8937,-1.8943,-1.8947,-1.895,-1.8951,-1.8949,-1.8952,-1.896,-1.8961,-1.8963,-1.8963,-1.8949,-1.8949,-1.8943,-1.8942,-1.8942]}]]